Regional Weather Roundup
Issued by NWS Charleston, SC

Current Version | Previous Version | Text Only | Print | Product List | Glossary Off
Versions: 1 2 3 4 5 6 7 8 9 10 11 12 13 14 15 16 17 18 19 20 21 22 23 24 25 26 27 28 29 30 31 32 33 34 35 36 37 38 39 40 41 42 43 44 45 46 47 48 49 50

000
ASUS42 KCHS 220827
RWRCHS

REGIONAL WEATHER ROUNDUP
NATIONAL WEATHER SERVICE CHARLESTON SC
300 AM EST SUN JAN 22 2017

NOTE: "FAIR" INDICATES FEW OR NO CLOUDS BELOW 12,000 FEET WITH NO
SIGNIFICANT WEATHER AND/OR OBSTRUCTIONS TO VISIBILITY.

NOT ALL STATIONS ARE QUALITY CONTROLLED. USE DATA WITH CAUTION...
ESPECIALLY DEWPOINT OBSERVATIONS.

SCZ027-030-031-034>040-042>050-220900-
...SOUTHEAST SOUTH CAROLINA...

CITY           SKY/WX    TMP DP  RH WIND       PRES   REMARKS
N CHARLESTON   LGT RAIN  62  58  86 W12       29.71R
WATERFRONT PRK   N/A     61  60  97 VRB2      29.69R
MOUNT PLEASANT LGT RAIN  63  61  94 W7        29.71R
JOHNS ISLAND   LGT RAIN  63  61  94 W10       29.72R
PINOPOLIS        N/A     59  59 100 NW7       29.61S
MONCKS CORNER  CLOUDY    59  57  94 W3        29.69S
SUMMERVILLE    CLOUDY   N/A N/A N/A CALM      29.71S
BEAUFORT MCAS  RAIN      63  61  93 SW8       29.74R FOG
BEAUFORT ARPT  RAIN      63  63 100 SW12G17   29.72S
HILTON HEAD IS LGT RAIN  64  63  94 VRB6G15   29.70F
WALTERBORO     RAIN      59  59 100 SW9       29.73R
ALLENDALE      RAIN      61  61 100 CALM      29.71R

...SOUTHERN MIDLANDS AND PEE DEE...

CITY           SKY/WX    TMP DP  RH WIND       PRES   REMARKS
GEORGETOWN     FAIR      59  57  94 W3        29.70F
KINGSTREE      PTSUNNY   59  55  88 W3        29.67F
ORANGEBURG     TSTM      60  58  92 SW7       29.68F
BARNWELL       RAIN      61  61 100 SW5       29.72R
AIKEN          RAIN      59  55  88 S5        29.73R
MANNING        PTSUNNY   59  55  88 SW5       29.69F
COLUMBIA       CLOUDY    62  57  83 SW6       29.68R
SUMTER         CLOUDY    61  56  84 SW7       29.67F
FLORENCE       CLOUDY    62  58  86 SW13      29.70R
MYRTLE BEACH   MOCLDY    61  55  82 W9        29.72S
N MYRTLE BEACH CLOUDY    59  58  96 W8        29.69F

$$

GAZ063-065-086>088-099>101-113>116-118-119-134>141-150-220900-
...SOUTHEAST GEORGIA...

CITY           SKY/WX    TMP DP  RH WIND       PRES   REMARKS
SAVANNAH ARPT  HVY RAIN  64  61  88 S12       29.73R FOG
HUNTER AAF     CLOUDY    63  63 100 S3        29.68F THUNDER
FORT STEWART   TSTM      63  61  94 E6        29.64F FOG
STATESBORO     CLOUDY    63  32  31 CALM      29.69F
SYLVANIA       HVY RAIN N/A N/A N/A CALM      29.69F
CLAXTON        TSTM     N/A N/A N/A NE10      29.65F

...CSRA...CENTRAL AND FAR SOUTHEAST GEORGIA...

CITY           SKY/WX    TMP DP  RH WIND       PRES   REMARKS
THOMSON          N/A     61  61 100 SE6       29.67F
AUGUSTA-BUSH   RAIN      62  59  90 S6        29.70R FOG
AUGUSTA-DANIEL RAIN      61  57  87 SE7       29.68F FOG
SWAINSBORO     CLOUDY    61  61 100 MISG      29.68F
VIDALIA        CLOUDY    63  63 100 E6        29.65F
EASTMAN        TSTM      62  62 100 NE3       29.65F
HAZLEHURST     TSTM      64  64 100 NE6       29.61F
ALMA           CLOUDY    66  64  93 S10       29.62R
WAYCROSS       CLOUDY    68  68 100 S13       29.64S
JESUP          CLOUDY    64  61  88 S5        29.66F
BAXLEY         TSTM      64  64 100 SE6G20    29.59F
BRUNSWICK      PTCLDY    66  63  88 S12G17    29.67F
SAINT SIMONS   PTCLDY    65  62  90 S10G17    29.69F

$$

SCZ027-028-034-036>038-045-046-048>050-GAZ119-141-220900-
...LAKE AND SUPPLEMENTAL COASTAL OBSERVATIONS...

STATION/POSITION TIME  TEMP    WIND        PRES    WAVE   SWELL
                       AIR SEA DIR/SP/G            HT/PER HT/PER/DIR
                 (UTC) (F)     (DEG/KT/KT) (MB)    (FT/S) (FT/S/D)
WINYAH BAY       0745   59     290/  6     1005.0S
LAKE MURRAY      0820   59     220/  6/  7 1005.1R
ACE BASIN NERRS  0745   62     250/  4     1007.0R
FORT PULASKI     0800   63 58  210/  6/ 10 1006.0
SAPELO ISLAND    0800   63     170/  8     1005.0

$$

ANZ835-935-AMZ111-154-330-350-352-354-370-450-454-472-220900-
...C-MAN AND BUOY OBSERVATIONS...

STATION/POSITION TIME  TEMP    WIND        PRES    WAVE   SWELL
                       AIR SEA DIR/SP/G            HT/PER HT/PER/DIR
                 (UTC) (F)     (DEG/KT/KT) (MB)    (FT/S) (FT/S/D)
BUOY 41004       0750   68 68  250/ 14/ 16 1005.3R   4/ 6   2/ 50/11
BUOY 41008       0750   64 62  180/  6/  8 1005.4F   3/11   2/ 80/11
FOLLY BEACH CMAN 0800   62     230/ 11/ 17 1006.5R
CAPERS NEARSHORE 0808   58 56  250/  8/ 14 1005.6R
FRIPP NEARSHORE  0808   62 59  240/ 21/ 27 1006.4R


STATION/POSITION TIME  TEMP    WIND        PRES    WAVE   SWELL
                       AIR SEA DIR/SP/G            HT/PER HT/PER/DIR
                 (UTC) (F)     (DEG/KT/KT) (MB)    (FT/S) (FT/S/D)
5E ST. MARYS GA  0800      63                N/A     3/11   2/110/11
FRYING PAN BUOY  0810   69 70  240/ 21/ 27 1005.1
BUOY 41025       0750   72 73  240/ 21/ 27 1003.3R   7/ 6   3/110/14
CAPE LOOKOUT NC  0800   60     260/ 11/ 13 1004.2R
BUOY 41002       0750   72 71  200/ 17/ 21 1007.1F   6/ 6   2/ 50/11
BUOY 41010       NOT AVBL
ST AUGUSTINE FL  0800   65 64  180/ 11/ 12 1007.3F


$$




USA.gov is the U.S. government's official web portal to all federal, state and local government web resources and services.